Regional Weather Roundup
Issued by NWS

Home | Current Version | Previous Version | Graphics & Text | Print | Product List | Glossary On
Versions: 1 2 3 4 5 6 7 8 9 10 11 12 13 14 15 16 17 18 19 20 21 22 23 24 25 26 27 28 29 30 31 32 33 34 35 36 37 38 39 40 41 42 43 44 45 46 47 48 49 50
000
ASUS43 KLOT 281610
RWRIL

ILLINOIS REGIONAL WEATHER ROUNDUP
NATIONAL WEATHER SERVICE CHICAGO/ROMEOVILLE IL
1000 AM CST FRI NOV 28 2014

NOTE: "FAIR" INDICATES FEW OR NO CLOUDS BELOW 12,000 FEET WITH NO
SIGNIFICANT WEATHER AND/OR OBSTRUCTIONS TO VISIBILITY.

* THESE STATIONS ARE NOT UNDER NWS QUALITY CONTROL. THEY ALSO MAY NOT
  REPORT WEATHER SUCH AS PRECIPITATION OR FOG.

ILZ001-002-007-009-015-016-024-281700-
NORTHWEST ILLINOIS

CITY           SKY/WX    TMP DP  RH WIND       PRES   REMARKS
MOLINE         PTSUNNY   24  17  74 S15G22    30.09F WCI  11
STERLING*      MOSUNNY   23  16  74 SE12G21   30.11F WCI  12
SAVANNA*       CLOUDY    24  16  73 S13       30.11S WCI  12
$$

ILZ003-004-008-010-011-017-018-281700-
NORTH CENTRAL ILLINOIS

CITY           SKY/WX    TMP DP  RH WIND       PRES   REMARKS
ROCKFORD       PTSUNNY   21  12  68 SE16      30.16F WCI   7
FREEPORT*      PTSUNNY   20  13  76 SE15      30.13F WCI   6
ROCHELLE*      PTSUNNY   21  15  77 SE16      30.15F WCI   7
DE KALB*       PTSUNNY   20  13  77 SE17      30.16F WCI   5
PERU*          MOSUNNY   26  18  73 SE18      30.16F WCI  12
$$

ILZ005-006-012>014-019>023-281700-
NORTHEAST ILLINOIS

CITY           SKY/WX    TMP DP  RH WIND       PRES   REMARKS
CHICAGO-OHARE  PTSUNNY   22  15  75 S16       30.21F WCI   8
CHICAGO-MIDWAY CLOUDY    25  15  66 S12       30.23F WCI  14
AURORA         PTSUNNY   23  13  65 SE15      30.20F WCI  10
LANSING*       PTSUNNY   25  17  69 S17       30.26F WCI  12
JOLIET*        PTSUNNY   23  15  71 SE9       30.22F WCI  13
WAUKEGAN       CLOUDY    21  12  68 S12       30.20F WCI   9
DUPAGE AIRPORT PTSUNNY   22  15  75 S15       30.19F WCI   9
KANKAKEE*      PTSUNNY  N/A N/A N/A SE10G16   30.26F
WHEELING       PTSUNNY   22  14  71 S14       30.23F WCI   9
MORRIS*        PTSUNNY   25  18  75 SE14      30.21F WCI  13
ROMEOVILLE*    PTSUNNY   23  15  71 S15G21    30.21F WCI  10
NORTHERLY ISL    N/A     23  15  71 S10         N/A  WCI  13
$$

LMZ740>746-281700-
SOUTHERN LAKE MICHIGAN

STATION/POSITION SKY/WX   TEMP    WIND        PRES    VSBY  WAVE
                          AIR SEA DIR/SP/G                  HT/PER
                          (F)     (DEG/KT/KT) (MB)    (MI)  (FT/S)
SOUTHERN BUOY              27 42  180/ 16/ 19 1024.3F         2/ 4
WAUKEGAN HARBOR            22     200/ 15/ 18   N/A
HARRISON CRIB              23     180/ 20/ 23   N/A
BURNHAM HARBOR             24     150/  9/ 15   N/A
CALUMET HARBOR             23     170/ 12/ 18 1023.1S
MICHIGAN CITY              23     150/ 10/ 14   N/A
$$

ILZ025>027-034>036-040-047-049-050-058-095>099-281700-
WEST-CENTRAL ILLINOIS

CITY           SKY/WX    TMP DP  RH WIND       PRES   REMARKS
QUINCY         MOSUNNY   34  25  69 S15       30.07F WCI  24
GALESBURG*     PTSUNNY   25  20  82 SE13G18   30.10S WCI  13
MACOMB*        PTSUNNY   27  23  85 S15G23    30.12F WCI  15
JACKSONVILLE*  MOSUNNY   33  27  77 S13       30.13F WCI  24
PITTSFIELD*    MOSUNNY   34  28  81 SE10      30.11F WCI  26
$$

ILZ028>032-037-038-041>044-048-051>054-059>061-281700-
CENTRAL ILLINOIS

CITY           SKY/WX    TMP DP  RH WIND       PRES   REMARKS
PONTIAC        MOSUNNY   28  20  72 SE15G22   30.20F WCI  16
BLOOMINGTON    MOSUNNY   29  23  78 S22       30.18F WCI  16
DECATUR        SUNNY     29  23  78 S17G28    30.22F WCI  17
PEORIA         MOSUNNY   29  21  72 S20       30.15F WCI  16
LACON*         MOSUNNY   28  21  75 S13G20    30.15F WCI  17
LINCOLN*       SUNNY     28  23  81 S15G22    30.20F WCI  17
SPRINGFIELD    MOSUNNY   30  25  81 S23       30.17F WCI  17
TAYLORVILLE    SUNNY     30  27  86 S18G26    30.20F WCI  18
$$

ILZ033-039-045-046-055>057-062-063-281700-
EAST-CENTRAL ILLINOIS

CITY           SKY/WX    TMP DP  RH WIND       PRES   REMARKS
CHAMPAIGN      CLOUDY    29  22  75 S20       30.25F WCI  16
DANVILLE*      CLOUDY    24  18  75 SE9       30.26F WCI  15
RANTOUL*       CLOUDY    28  21  74 S15       30.25F WCI  17
MATTOON        PTSUNNY   28  22  78 S17       30.25F WCI  16
PARIS*         CLOUDY    29  24  82 SE12      30.30F WCI  19
$$

ILZ079-100>102-281700-
SOUTHWEST ILLINOIS

CITY           SKY/WX    TMP DP  RH WIND       PRES   REMARKS
ALTON          MOSUNNY   34  28  80 S17       30.20F WCI  23
BELLEVILLE     SUNNY     35  31  84 S17G30    30.20F WCI  25
CAHOKIA*       SUNNY     35  29  78 S13G21    30.20F WCI  26
SPARTA*        SUNNY     34  28  79 S14G23    30.25F WCI  25
$$

ILZ064>066-069>071-074>076-080>082-084>086-088>090-092>094-281700-
SOUTH-CENTRAL ILLINOIS

CITY           SKY/WX    TMP DP  RH WIND       PRES   REMARKS
CARBONDALE     SUNNY     37  28  70 S16       30.30F WCI  28
CAIRO*         SUNNY     39  29  69 S9        30.35S WCI  32
EFFINGHAM*     MOSUNNY   31  22  70 SE12      30.28F WCI  21
MARION         SUNNY     36  28  75 S12       30.32F WCI  27
MT. VERNON     SUNNY     34  27  75 S10       30.28F WCI  26
CENTRALIA*     SUNNY     33  27  77 S14G20    30.24F WCI  23
SALEM*           N/A     35  28  75 S14       30.26F WCI  25
METROPOLIS*    SUNNY     37  29  72 S12         N/A  WCI  30
$$

ILZ067-068-072-073-078-083-087-091-281700-
SOUTHEAST ILLINOIS

CITY           SKY/WX    TMP DP  RH WIND       PRES   REMARKS
LAWRENCEVILLE  MOSUNNY   32  26  78 S14       30.34F WCI  22
FLORA*         MOSUNNY   32  27  81 S14       30.30F WCI  22
FAIRFIELD*     SUNNY     32  27  81 S10       30.30F WCI  24
HARRISBURG*    SUNNY     36  29  78 S13       30.34F WCI  27
ROBINSON*      PTSUNNY   32  26  78 S10       30.34F WCI  24
CARMI*         SUNNY     34  32  90 S14       30.34F WCI  25
$$

ABBREVIATIONS USED IN REMARKS
   TC - TEMPERATURE IN CELSIUS
  WCI - WIND CHILL INDEX
   HX - HEAT INDEX
  VSB - VISIBILITY
$$



USA.gov is the U.S. government's official web portal to all federal, state and local government web resources and services.